Location: Caltech
(34.1382°N, 118.1253°W)
Time: 15:27:55
(UTC-07:00)

Iridium 91 - Visible Passes

Search period start: 02 August 2015 00:00
Search period end: 12 August 2015 00:00
Orbit: 776 x 779 km, 86.4° (Epoch: 02 August)

Date Brightness Start Highest point End Pass type
(mag) Time Alt. Az. Time Alt. Az. Time Alt. Az.
03 Aug 7.2 05:29:05 10° NNE 05:33:55 38° E 05:38:46 10° SSE visible
04 Aug 8.3 04:56:25 10° NNE 05:00:08 20° ENE 05:04:02 10° SE visible
06 Aug 6.3 05:28:57 10° N 05:34:05 58° E 05:39:13 10° SSE visible
07 Aug 7.6 04:55:55 10° NNE 05:00:25 30° E 05:05:00 10° SE visible
08 Aug 8.4 04:23:39 10° NE 04:26:35 16° ENE 04:29:46 10° ESE visible
09 Aug 5.6 05:28:59 10° N 05:34:13 87° E 05:39:26 10° S visible
10 Aug 6.7 04:55:41 10° NNE 05:00:38 44° E 05:05:37 10° SSE visible
11 Aug 7.9 04:22:52 10° NNE 04:26:54 23° E 04:31:04 10° SE visible
